(67076) = 2000 AC19 = 2001 DM58

Discovered at Socorro on 2000-01-03 by LINEAR.

Orbit

Orbit type: Main Belt

Note: WebGL enabled browser required.

epoch2024-03-31.0
epoch JD2460400.5
perihelion date2023-06-25.31261
perihelion JD2460120.81262
argument of perihelion (°)273.44964
ascending node (°)273.41374
inclination (°)8.71912
eccentricity0.1055985
perihelion distance (AU)2.7889415
Tisserand w.r.t. Jupiter3.2
ΔV w.r.t. Earth (km/sec)10.7
semimajor axis (AU)3.1182211
mean anomaly (°)50.06297
mean daily motion (°/day)0.17899620
aphelion distance (AU)3.448
period (years)5.51
P-vector [x]-0.98131871
P-vector [y]-0.04882090
P-vector [z]-0.18609169
Q-vector [x]0.11880808
Q-vector [y]-0.91457359
Q-vector [z]-0.38657442
absolute magnitude14.1
phase slope0.15
uncertainty0
referenceE2024-GH2
observations used1501
oppositions20
arc length (days)8915
first opposition used1999
last opposition used2024
residual rms (arc-secs)0.69
perturbers coarse indicatorM-v
perturbers precise indicator003Ek
first observation date used1999-11-14.0
last observation date used2024-04-11.0
computer nameMPCLINUX
JD of orbit computation2456937.409765
perihelion JD uncertainty (days)1.4820E-04
argument of perihelion uncertainty (°)4.5565E-05
ascending node uncertainty (°)3.7965E-05
inclination uncertainty (°)5.0775E-06
eccentricity uncertainty 5.8778E-08
perihelion distance uncertainty (AU)1.7826E-07
Minimum Orbit Intersection Distances (in AU)
for orbit epoch: 2460400.5, reference: E2024-GH2
Mercury2.38014
Venus2.08892
Earth1.80798
Mars1.1995
Jupiter1.6657
Saturn5.84109
Uranus15.649
Neptune26.4544

Observations

1530 total observations over interval: 1999 11 14.42798 – 2023 05 23.162268
These data are available for download (format description).

Date (UT) J2000 RA J2000 Dec Magn Location Ref
1999 11 14.42798 05 34 12.72 +27 14 19.6 19.2   704 – Lincoln Laboratory ETS, New Mexico MPS 10907
1999 11 14.44225 05 34 12.27 +27 14 19.0 19.8   704 – Lincoln Laboratory ETS, New Mexico MPS 10907
1999 11 14.45652 05 34 11.70 +27 14 16.5 20.0   704 – Lincoln Laboratory ETS, New Mexico MPS 10907
1999 11 14.48506 05 34 10.64 +27 14 13.9 18.9   704 – Lincoln Laboratory ETS, New Mexico MPS 10907
1999 11 16.29117 05 33 04.05 +27 11 20.4 18.7   704 – Lincoln Laboratory ETS, New Mexico MPS 10907
1999 11 16.30540 05 33 03.54 +27 11 19.7 18.7   704 – Lincoln Laboratory ETS, New Mexico MPS 10907
1999 11 16.31993 05 33 03.02 +27 11 16.9 19.3   704 – Lincoln Laboratory ETS, New Mexico MPS 10907
1999 11 16.34853 05 33 01.82 +27 11 14.8 19.1   704 – Lincoln Laboratory ETS, New Mexico MPS 10907
1999 12 05.37138 05 17 58.81 +26 28 43.8 17.8 R 703 – Catalina Sky Survey MPS 10907
1999 12 05.38382 05 17 58.22 +26 28 42.3 17.4 R 703 – Catalina Sky Survey MPS 10907
1999 12 05.39950 05 17 57.39 +26 28 39.9 17.9 R 703 – Catalina Sky Survey MPS 10907
1999 12 05.41192 05 17 56.64 +26 28 37.4 17.9 R 703 – Catalina Sky Survey MPS 10907
1999 12 07.29302 05 16 14.50 +26 23 10.7 18.7   704 – Lincoln Laboratory ETS, New Mexico MPS 10907
1999 12 07.30763 05 16 13.68 +26 23 08.6 18.1   704 – Lincoln Laboratory ETS, New Mexico MPS 10907
1999 12 07.32216 05 16 12.85 +26 23 05.7 18.2   704 – Lincoln Laboratory ETS, New Mexico MPS 10907
1999 12 07.33682 05 16 12.05 +26 23 03.4 18.2   704 – Lincoln Laboratory ETS, New Mexico MPS 10907
1999 12 07.35146 05 16 11.21 +26 23 00.6 18.7   704 – Lincoln Laboratory ETS, New Mexico MPS 10907
2000 01 03.23891 04 53 22.14 +24 50 23.2 18.9   704 – Lincoln Laboratory ETS, New Mexico MPS 9231
2000 01 03.25369 04 53 21.54 +24 50 19.5 19.4   704 – Lincoln Laboratory ETS, New Mexico MPS 9231
2000 01 03.26852 04 53 20.84 +24 50 15.8 20.0   704 – Lincoln Laboratory ETS, New Mexico MPS 9231
2000 01 03.28333 04 53 20.25 +24 50 12.9 19.4   704 – Lincoln Laboratory ETS, New Mexico MPS 9231
2000 01 04.23249 04 52 42.16 +24 46 48.7 19.4   704 – Lincoln Laboratory ETS, New Mexico MPS 9231
2000 01 04.24715 04 52 41.56 +24 46 44.7 18.7   704 – Lincoln Laboratory ETS, New Mexico MPS 9231
2000 01 04.26178 04 52 40.92 +24 46 41.9 18.8   704 – Lincoln Laboratory ETS, New Mexico MPS 9231
2000 01 04.27639 04 52 40.32 +24 46 37.9 19.1   704 – Lincoln Laboratory ETS, New Mexico MPS 9231
2000 12 30.42440 11 13 26.35 -04 35 55.1 18.7 R 699 – Lowell Observatory-LONEOS MPS 27079
2000 12 30.44472 11 13 26.74 -04 36 02.8   699 – Lowell Observatory-LONEOS MPS 27079
2000 12 30.46504 11 13 27.03 -04 36 11.0   699 – Lowell Observatory-LONEOS MPS 27079
2000 12 30.48539 11 13 27.43 -04 36 19.0   699 – Lowell Observatory-LONEOS MPS 27079
2001 02 17.59997 11 02 15.49 -06 59 46.3 19.1   608 – Haleakala-AMOS MPS 27079
2001 02 17.61033 11 02 15.06 -06 59 45.4 19.1   608 – Haleakala-AMOS MPS 27079
2001 02 17.62034 11 02 14.64 -06 59 44.7 19.1   608 – Haleakala-AMOS MPS 27079
2001 02 22.31914 10 58 48.73 -06 51 54.6 17.7   704 – Lincoln Laboratory ETS, New Mexico MPS 27079
2001 02 22.33288 10 58 48.09 -06 51 52.5 18.2   704 – Lincoln Laboratory ETS, New Mexico MPS 27079
2001 02 22.34691 10 58 47.41 -06 51 50.5 18.1   704 – Lincoln Laboratory ETS, New Mexico MPS 27079
2001 02 22.36211 10 58 46.65 -06 51 48.1 18.7   704 – Lincoln Laboratory ETS, New Mexico MPS 27079
2001 02 22.37618 10 58 46.03 -06 51 47.2 18.9   704 – Lincoln Laboratory ETS, New Mexico MPS 27079
2001 02 22.61547 10 58 34.95 -06 51 15.8 19.3   608 – Haleakala-AMOS MPS 27079
2001 02 22.62516 10 58 34.50 -06 51 14.5 19.2   608 – Haleakala-AMOS MPS 27079
2001 02 22.63547 10 58 34.02 -06 51 13.1 19.3   608 – Haleakala-AMOS MPS 27079
2001 03 13.57287 10 43 47.68 -05 45 52.0 19.1   608 – Haleakala-AMOS MPS 27785
2001 03 13.58339 10 43 47.22 -05 45 49.6 20.1   608 – Haleakala-AMOS MPS 27785
2001 03 13.59442 10 43 46.74 -05 45 47.0 19.9   608 – Haleakala-AMOS MPS 27785
2001 03 17.30957 10 41 04.10 -05 28 42.1 18.6   704 – Lincoln Laboratory ETS, New Mexico MPS 27785
2001 03 17.32372 10 41 03.51 -05 28 38.8 19.1   704 – Lincoln Laboratory ETS, New Mexico MPS 27785
2001 03 17.33671 10 41 02.87 -05 28 34.4 18.8   704 – Lincoln Laboratory ETS, New Mexico MPS 27785
2001 03 20.30163 10 39 00.42 -05 14 22.6 19.4   608 – Haleakala-AMOS MPS 27785
2001 03 20.31256 10 38 59.92 -05 14 19.6 19.5   608 – Haleakala-AMOS MPS 27785
2001 03 20.32298 10 38 59.50 -05 14 16.7 20.0   608 – Haleakala-AMOS MPS 27785
2001 03 21.22523 10 38 23.46 -05 09 54.3 18.0 R 699 – Lowell Observatory-LONEOS MPS 27786
2001 03 21.24855 10 38 22.51 -05 09 47.4   699 – Lowell Observatory-LONEOS MPS 27786
2001 03 21.27192 10 38 21.55 -05 09 41.0   699 – Lowell Observatory-LONEOS MPS 27786
2001 03 21.29535 10 38 20.59 -05 09 33.8   699 – Lowell Observatory-LONEOS MPS 27786
2001 03 26.24427 10 35 17.70 -04 45 14.8 18.8   704 – Lincoln Laboratory ETS, New Mexico MPS 27786
2001 03 26.25693 10 35 17.21 -04 45 10.3 18.8   704 – Lincoln Laboratory ETS, New Mexico MPS 27786
2001 03 26.26927 10 35 16.78 -04 45 07.5 18.9   704 – Lincoln Laboratory ETS, New Mexico MPS 27786
2001 03 26.28242 10 35 16.33 -04 45 04.3 18.8   704 – Lincoln Laboratory ETS, New Mexico MPS 27786
2001 03 26.29517 10 35 15.86 -04 44 59.2 19.0   704 – Lincoln Laboratory ETS, New Mexico MPS 27786
2001 05 16.27644 10 34 44.78 -02 11 08.1 19.4   608 – Haleakala-AMOS MPS 30783
2001 05 16.28710 10 34 45.09 -02 11 07.8 19.6   608 – Haleakala-AMOS MPS 30783
2001 05 16.29773 10 34 45.44 -02 11 07.5 19.8   608 – Haleakala-AMOS MPS 30783
2001 05 18.26850 10 35 51.69 -02 11 08.8 19.4   608 – Haleakala-AMOS MPS 30783
2001 05 18.27918 10 35 52.06 -02 11 08.7 19.4   608 – Haleakala-AMOS MPS 30783
2001 05 18.28967 10 35 52.40 -02 11 09.0 19.7   608 – Haleakala-AMOS MPS 30783
2002 06 11.67440 17 35 45.72 -25 44 14.6 17.0 R 428 – Reedy Creek MPS 57012
2003 07 29.55279 22 44 29.37 +02 53 50.4 20.3   608 – Haleakala-AMOS MPS 82378
2003 07 29.56342 22 44 29.10 +02 53 51.1 20.0   608 – Haleakala-AMOS MPS 82378
2003 07 29.57435 22 44 28.69 +02 53 51.0 20.8   608 – Haleakala-AMOS MPS 82378
2003 07 30.34432 22 44 06.50 +02 54 02.0   704 – Lincoln Laboratory ETS, New Mexico MPS 406513
2003 08 20.32256 22 30 59.71 +02 28 17.1 18.7   644 – Palomar Mountain/NEAT MPS 82944
2003 08 20.34711 22 30 58.60 +02 28 13.3 19.1   644 – Palomar Mountain/NEAT MPS 82944
2003 08 20.38862 22 30 56.75 +02 28 07.1 18.5   644 – Palomar Mountain/NEAT MPS 82944
2003 08 27.50727 22 25 40.76 +02 07 18.6 19.5   608 – Haleakala-AMOS MPS 83243
2003 08 27.51774 22 25 40.28 +02 07 17.0 19.5   608 – Haleakala-AMOS MPS 83243
2003 08 27.52834 22 25 39.80 +02 07 14.6 19.9   608 – Haleakala-AMOS MPS 83243
2003 09 02.25969 22 21 23.49 +01 47 08.2 19.2   704 – Lincoln Laboratory ETS, New Mexico MPS 83952
2003 09 02.27162 22 21 22.95 +01 47 05.8 19.4   704 – Lincoln Laboratory ETS, New Mexico MPS 83952
2003 09 02.28340 22 21 22.39 +01 47 03.0 19.3   704 – Lincoln Laboratory ETS, New Mexico MPS 83952
2003 09 02.29505 22 21 21.85 +01 47 00.5 19.0   704 – Lincoln Laboratory ETS, New Mexico MPS 83952
2003 09 16.20994 22 11 42.45 +00 50 34.3 19.3 R 699 – Lowell Observatory-LONEOS MPS 84925
2003 09 16.22660 22 11 41.85 +00 50 30.9   699 – Lowell Observatory-LONEOS MPS 84925
2003 09 16.24311 22 11 41.21 +00 50 26.9   699 – Lowell Observatory-LONEOS MPS 84925
2003 09 16.25962 22 11 40.50 +00 50 22.8   699 – Lowell Observatory-LONEOS MPS 84925
2003 09 19.24910 22 09 51.08 +00 37 39.2 19.4   704 – Lincoln Laboratory ETS, New Mexico MPS 84925
2003 09 19.26170 22 09 50.63 +00 37 36.0 19.5   704 – Lincoln Laboratory ETS, New Mexico MPS 84925
2003 09 19.27467 22 09 50.21 +00 37 31.8 18.8   704 – Lincoln Laboratory ETS, New Mexico MPS 84925
2003 09 27.16158 22 05 38.58 +00 04 25.2 19.7 R 699 – Lowell Observatory-LONEOS MPS 86822
2003 09 27.17497 22 05 38.23 +00 04 22.0   699 – Lowell Observatory-LONEOS MPS 86822
2003 09 27.18830 22 05 37.83 +00 04 18.1   699 – Lowell Observatory-LONEOS MPS 86822
2003 09 27.20160 22 05 37.45 +00 04 14.9   699 – Lowell Observatory-LONEOS MPS 86822
2003 10 16.09968 22 00 04.42 -01 03 19.4 19.1   644 – Palomar Mountain/NEAT MPS 87521
